Showing default

DAQI 1, 52257

Orbit data source: Space-Track

DAQI 1, 52257 is a payload satellite owned by CRESDA (CN) in SSO that was launched on Fri, 15 Apr 2022 UTC via a CHANG ZHENG 4C launch vehicle from the Taiyaun Space Center, China (TSC). Payload-class satellites include a variety of spacecraft equipped with specific instruments for various scientific and technological missions. These include communications satellites like Starlink; space stations such as the ISS; scientific satellites like the Hubble; Earth observation satellites from companies like Planet Labs, Umbra, and HawkEye 360; GPS; miniature CubeSats for education and research; and military/defense satellites.

Loading next visibility...
Identifier
52257, 2022-039A
Orbit
SSO
Country
Flag of CNCN / PRC
Related business
Manufacturer
CAST
Mission
Operational Civil Earth Obs Sci
Bus & Motor
ZY, AOCS 20N
Mass
2,640 kg wet, ~2,300 kg dry
Launch date (UTC)
2022-04-15 (4 years ago)
Launch vehicle
CHANG ZHENG 4C
Launch site
Taiyaun Space Center, China (TSC)
Object type
Payload
Rocket body
Debris
Shape & HBR
Box + 1 Pan, 4.5 m
Radar Cross Section
9.469 m², Large (>1 m²)

Expand to show TLE details & history
Last TLE update: 22 hours ago

TLE from 22 hours ago
0 DAQI 1
1 52257U 22039A   26172.53851432  .00000029  00000-0  16156-4 0  9990
2 52257  98.1483 111.3005 0002347 231.3500 128.7489 14.57678859222574
Epoch: 2026-06-21T12:55Z
TLE epoch observation values (Epoch: 2026-06-21T12:55:27.637Z)
Latitude
-0.00002°
Longitude
7.698°
Altitude
704.703 km
Speed
7.503 km/s
True Right ascension
07h 25m 12s
True Declination
0° 00' 00"
Sunlit
Object was in daylight at epoch
Visualization orbit readout
Latitude
Unknown
Longitude
Unknown
Altitude
Unknown
Speed
Unknown
Apparent Right ascension
Unknown
Apparent Declination
Unknown
Sunlit
N/A
Visualization observer readout
Local Sidereal Time
21:34:31
Azimuth
Unknown
Elevation
Unknown
Doppler factor
Unknown
Orbital elements
Apogee altitude
699.421 km
Perigee altitude
696.1 km
Semi-major axis
7,075.898 km
Eccentricity
0.00023
Inclination
98.1483°
RAAN
111.3005°
Arg. of periapsis
231.35°
True anomaly
128.76987°
Mean anomaly
128.7489°
Eccentric anomaly
128.75939°
Mean motion
3.64646 °/min
Orbital period
98.73 mins
BSTAR
0.000016156
Loading maneuver chart data...
Computing Atmospheric mass density...
Loading historical data...
Loading historical data...
Loading historical data...
Loading historical data...
Loading historical data...
Loading historical data...
Loading historical data...
Other satellites on launch #39 in the year 2022 (2022-04-15 UTC)

Documentation

Showing up to 5 results
|